�������l�o���
Date,Time,MP-1(��Sv/h),MP-2(��Sv/h),MP-3(��Sv/h),MP-4(��Sv/h),MP-5(��Sv/h),MP-6(��Sv/h),MP-7(��Sv/h),MP-8(��Sv/h),����,����(m/s),���J
2022/08/10,00:00,0.585,0.821,0.522,0.986,0.710,0.336,0.583,0.550,��,4.1,��
2022/08/10,00:10,0.584,0.822,0.520,0.989,0.711,0.338,0.584,0.552,��,4.3,��
2022/08/10,00:20,0.585,0.822,0.522,0.988,0.710,0.338,0.583,0.551,��,4.5,��
2022/08/10,00:30,0.586,0.823,0.521,0.987,0.710,0.336,0.584,0.550,��,5.4,��
2022/08/10,00:40,0.586,0.823,0.523,0.989,0.711,0.338,0.583,0.552,��,7.0,��
2022/08/10,00:50,0.585,0.822,0.523,0.989,0.712,0.338,0.583,0.552,��,6.7,��
2022/08/10,01:00,0.586,0.824,0.524,0.989,0.710,0.337,0.583,0.551,��,7.2,��
2022/08/10,01:10,0.586,0.823,0.524,0.990,0.711,0.339,0.584,0.550,��,8.9,��
2022/08/10,01:20,0.588,0.822,0.524,0.988,0.712,0.337,0.582,0.550,��,8.6,��
2022/08/10,01:30,0.586,0.824,0.522,0.989,0.711,0.338,0.584,0.551,��,7.4,��
2022/08/10,01:40,0.586,0.824,0.524,0.986,0.710,0.337,0.583,0.550,��,6.4,��
2022/08/10,01:50,0.587,0.821,0.524,0.990,0.712,0.337,0.586,0.550,��,5.8,��
2022/08/10,02:00,0.584,0.825,0.525,0.988,0.711,0.339,0.585,0.551,��,3.7,��
2022/08/10,02:10,0.583,0.824,0.523,0.989,0.712,0.339,0.584,0.551,��쐼,3.2,��
2022/08/10,02:20,0.585,0.824,0.523,0.988,0.711,0.337,0.584,0.551,��쐼,3.1,��
2022/08/10,02:30,0.585,0.823,0.524,0.990,0.712,0.338,0.585,0.551,��쐼,2.9,��
2022/08/10,02:40,0.585,0.823,0.524,0.990,0.712,0.338,0.584,0.551,��쐼,2.8,��
2022/08/10,02:50,0.588,0.825,0.524,0.991,0.712,0.339,0.584,0.552,��쐼,3.2,��
2022/08/10,03:00,0.586,0.825,0.525,0.989,0.711,0.339,0.585,0.551,��쐼,3.9,��
2022/08/10,03:10,0.588,0.822,0.523,0.991,0.713,0.338,0.584,0.551,��쐼,4.3,��
2022/08/10,03:20,0.584,0.825,0.523,0.991,0.713,0.338,0.583,0.553,��쐼,4.7,��
2022/08/10,03:30,0.587,0.827,0.522,0.988,0.712,0.338,0.584,0.551,��쐼,4.2,��
2022/08/10,03:40,0.587,0.824,0.523,0.989,0.712,0.338,0.584,0.552,�쐼,3.4,��
2022/08/10,03:50,0.587,0.824,0.524,0.990,0.712,0.338,0.584,0.551,�쐼,3.7,��
2022/08/10,04:00,0.586,0.824,0.525,0.990,0.712,0.337,0.585,0.550,�쐼,2.8,��
2022/08/10,04:10,0.589,0.826,0.524,0.989,0.712,0.337,0.583,0.551,���쐼,2.3,��
2022/08/10,04:20,0.587,0.825,0.524,0.989,0.713,0.339,0.585,0.552,��,1.5,��
2022/08/10,04:30,0.588,0.825,0.524,0.993,0.712,0.338,0.583,0.552,���k��,0.9,��
2022/08/10,04:40,0.587,0.824,0.522,0.990,0.713,0.336,0.584,0.551,���쐼,0.8,��
2022/08/10,04:50,0.586,0.824,0.523,0.990,0.712,0.339,0.584,0.552,��쐼,1.5,��
2022/08/10,05:00,0.586,0.825,0.524,0.990,0.712,0.338,0.584,0.551,���쐼,1.1,��
2022/08/10,05:10,0.587,0.823,0.526,0.991,0.712,0.337,0.585,0.551,��,1.2,��
2022/08/10,05:20,0.587,0.825,0.524,0.992,0.715,0.340,0.585,0.553,��쐼,2.0,��
2022/08/10,05:30,0.587,0.826,0.524,0.991,0.712,0.338,0.584,0.554,��쐼,3.4,��
2022/08/10,05:40,0.586,0.826,0.523,0.993,0.713,0.338,0.585,0.551,��쐼,2.9,��
2022/08/10,05:50,0.586,0.825,0.526,0.991,0.712,0.337,0.585,0.553,��쐼,2.8,��
2022/08/10,06:00,0.586,0.825,0.526,0.990,0.714,0.339,0.585,0.551,��쐼,3.5,��
2022/08/10,06:10,0.589,0.825,0.524,0.991,0.712,0.340,0.585,0.552,��쐼,3.9,��
2022/08/10,06:20,0.586,0.828,0.524,0.992,0.715,0.338,0.585,0.554,��쐼,3.3,��
2022/08/10,06:30,0.588,0.826,0.525,0.991,0.714,0.338,0.584,0.553,��쐼,2.8,��
2022/08/10,06:40,0.588,0.826,0.525,0.992,0.713,0.339,0.585,0.553,�쐼,2.5,��
2022/08/10,06:50,0.588,0.825,0.524,0.989,0.714,0.338,0.586,0.552,�쐼,2.8,��
2022/08/10,07:00,0.587,0.825,0.524,0.989,0.714,0.338,0.585,0.552,��쐼,2.2,��
2022/08/10,07:10,0.587,0.826,0.525,0.991,0.714,0.338,0.585,0.553,��,1.9,��
2022/08/10,07:20,0.589,0.825,0.524,0.990,0.714,0.339,0.585,0.553,��,2.3,��
2022/08/10,07:30,0.589,0.825,0.526,0.991,0.713,0.339,0.587,0.552,��,1.7,��
2022/08/10,07:40,0.589,0.824,0.525,0.991,0.714,0.339,0.587,0.553,��쐼,1.4,��
2022/08/10,07:50,0.589,0.825,0.525,0.991,0.713,0.337,0.585,0.553,��,1.7,��
2022/08/10,08:00,0.587,0.826,0.525,0.995,0.715,0.339,0.585,0.552,��,2.0,��
2022/08/10,08:10,0.588,0.825,0.525,0.995,0.713,0.339,0.585,0.553,��쓌,2.8,��
2022/08/10,08:20,0.589,0.823,0.525,0.994,0.715,0.339,0.586,0.552,��쓌,3.8,��
2022/08/10,08:30,0.589,0.823,0.525,0.992,0.715,0.338,0.586,0.549,��쓌,3.3,��
2022/08/10,08:40,0.590,0.825,0.525,0.993,0.715,0.338,0.586,0.551,��쓌,3.4,��
2022/08/10,08:50,0.590,0.826,0.526,0.991,0.715,0.339,0.587,0.551,��쓌,4.0,��
2022/08/10,09:00,0.590,0.825,0.525,0.993,0.715,0.339,0.589,0.552,��쓌,4.5,��
2022/08/10,09:10,0.590,0.825,0.524,0.990,0.715,0.339,0.587,0.551,��쓌,4.6,��
2022/08/10,09:20,0.590,0.827,0.526,0.990,0.716,0.338,0.588,0.551,��쓌,4.6,��
2022/08/10,09:30,0.590,0.829,0.526,0.991,0.716,0.339,0.587,0.550,��쓌,4.5,��
2022/08/10,09:40,0.591,0.828,0.527,0.990,0.718,0.340,0.588,0.551,��쓌,4.0,��
2022/08/10,09:50,0.591,0.829,0.527,0.992,0.719,0.340,0.587,0.551,��쓌,3.7,��
2022/08/10,10:00,0.592,0.828,0.527,0.995,0.717,0.338,0.587,0.551,��쓌,4.5,��
2022/08/10,10:10,0.592,0.829,0.527,0.993,0.719,0.339,0.585,0.554,��쓌,5.3,��
2022/08/10,10:20,0.592,0.829,0.528,0.995,0.717,0.339,0.585,0.552,��쓌,6.1,��
2022/08/10,10:30,0.592,0.829,0.528,0.995,0.718,0.339,0.587,0.552,��쓌,6.7,��
2022/08/10,10:40,0.594,0.832,0.531,0.994,0.720,0.339,0.586,0.553,��쓌,6.4,��
2022/08/10,10:50,0.594,0.829,0.530,0.995,0.723,0.339,0.586,0.552,��쓌,6.8,��
2022/08/10,11:00,0.593,0.833,0.531,0.992,0.721,0.340,0.585,0.552,��쓌,7.8,��
2022/08/10,11:10,0.590,0.833,0.530,0.994,0.719,0.340,0.587,0.553,��,8.2,��
2022/08/10,11:20,0.593,0.831,0.532,0.994,0.720,0.340,0.588,0.552,��쓌,8.5,��
2022/08/10,11:30,0.592,0.835,0.531,0.993,0.723,0.341,0.588,0.553,��,7.3,��
2022/08/10,11:40,0.594,0.834,0.532,0.993,0.723,0.341,0.588,0.554,��,5.6,��
2022/08/10,11:50,0.594,0.836,0.532,0.993,0.725,0.341,0.589,0.555,��,5.9,��
2022/08/10,12:00,0.595,0.839,0.531,0.994,0.723,0.340,0.587,0.555,��,6.5,��
2022/08/10,12:10,0.593,0.838,0.531,0.995,0.725,0.342,0.587,0.553,��,7.1,��
2022/08/10,12:20,0.594,0.840,0.531,0.996,0.725,0.342,0.587,0.554,��,7.6,��
2022/08/10,12:30,0.594,0.839,0.531,0.997,0.726,0.340,0.587,0.553,��,7.8,��
2022/08/10,12:40,0.593,0.840,0.532,0.997,0.726,0.340,0.588,0.554,��쓌,10.6,��
2022/08/10,12:50,0.592,0.836,0.532,0.995,0.726,0.341,0.587,0.553,��,11.3,��
2022/08/10,13:00,0.594,0.839,0.531,0.997,0.726,0.340,0.589,0.553,��,10.2,��
2022/08/10,13:10,0.594,0.837,0.530,0.996,0.726,0.341,0.589,0.554,��,9.7,��
2022/08/10,13:20,0.591,0.837,0.531,0.995,0.726,0.340,0.589,0.555,��,9.5,��
2022/08/10,13:30,0.594,0.837,0.531,0.996,0.726,0.341,0.588,0.553,��,9.3,��
2022/08/10,13:40,0.593,0.836,0.529,0.997,0.727,0.341,0.587,0.554,��,9.6,��
2022/08/10,13:50,0.594,0.837,0.530,0.999,0.726,0.341,0.589,0.555,��,9.4,��
2022/08/10,14:00,0.596,0.836,0.531,0.997,0.728,0.342,0.590,0.556,��,9.9,��
2022/08/10,14:10,0.594,0.837,0.534,0.997,0.727,0.342,0.591,0.553,��,8.2,��
2022/08/10,14:20,0.595,0.838,0.533,0.998,0.727,0.341,0.591,0.554,��,6.7,��
2022/08/10,14:30,0.597,0.840,0.533,0.998,0.728,0.342,0.589,0.556,��,7.7,��
2022/08/10,14:40,0.596,0.839,0.534,0.997,0.729,0.341,0.590,0.555,��,7.4,��
2022/08/10,14:50,0.593,0.841,0.533,0.998,0.729,0.342,0.590,0.556,��,6.6,��
2022/08/10,15:00,0.596,0.842,0.534,0.999,0.730,0.342,0.593,0.555,��,7.3,��
2022/08/10,15:10,0.596,0.842,0.534,1.000,0.731,0.342,0.591,0.554,��,8.0,��
2022/08/10,15:20,0.598,0.843,0.534,1.000,0.728,0.342,0.591,0.554,��,8.5,��
2022/08/10,15:30,0.595,0.843,0.533,1.000,0.729,0.342,0.589,0.556,��,9.8,��
2022/08/10,15:40,0.597,0.841,0.532,1.003,0.727,0.340,0.590,0.556,��,8.4,��
2022/08/10,15:50,0.595,0.843,0.533,1.001,0.727,0.341,0.589,0.556,��,8.2,��
2022/08/10,16:00,0.594,0.840,0.532,0.999,0.726,0.339,0.590,0.554,��,7.8,��
2022/08/10,16:10,0.596,0.843,0.532,0.999,0.728,0.339,0.591,0.554,��,7.1,��
2022/08/10,16:20,0.596,0.843,0.532,0.999,0.727,0.341,0.590,0.555,��,6.2,��
2022/08/10,16:30,0.599,0.841,0.533,1.002,0.727,0.341,0.589,0.555,��,5.8,�L
2022/08/10,16:40,0.597,0.842,0.534,1.001,0.728,0.341,0.591,0.555,��쐼,6.5,�L
2022/08/10,16:50,0.597,0.842,0.533,1.001,0.729,0.340,0.590,0.555,��쐼,6.4,�L
2022/08/10,17:00,0.598,0.840,0.533,1.001,0.727,0.342,0.589,0.555,�k��,1.5,��
2022/08/10,17:10,0.595,0.841,0.531,1.000,0.728,0.341,0.589,0.555,�k,5.7,��
2022/08/10,17:20,0.596,0.842,0.533,1.002,0.729,0.340,0.589,0.553,�k,7.6,��
2022/08/10,17:30,0.595,0.842,0.533,1.002,0.731,0.341,0.589,0.555,�k�k��,5.0,�L
2022/08/10,17:40,0.595,0.841,0.531,1.002,0.727,0.341,0.591,0.555,�k��,4.6,�L
2022/08/10,17:50,0.596,0.840,0.533,1.004,0.729,0.341,0.589,0.556,�k�k��,4.8,�L
2022/08/10,18:00,0.596,0.842,0.533,1.002,0.728,0.340,0.589,0.555,�k��,2.3,�L
2022/08/10,18:10,0.595,0.840,0.532,1.003,0.729,0.341,0.589,0.554,�k��,4.2,�L
2022/08/10,18:20,0.598,0.842,0.534,1.004,0.730,0.341,0.589,0.554,�k��,4.9,��
2022/08/10,18:30,0.599,0.842,0.534,1.002,0.728,0.340,0.589,0.555,�k��,4.2,��
2022/08/10,18:40,0.596,0.842,0.532,1.004,0.730,0.339,0.589,0.555,���k��,4.4,��
2022/08/10,18:50,0.598,0.842,0.534,1.004,0.726,0.341,0.589,0.554,��,2.0,��
2022/08/10,19:00,0.596,0.843,0.534,1.004,0.729,0.340,0.590,0.552,���쐼,1.2,��
2022/08/10,19:10,0.597,0.842,0.533,1.002,0.728,0.341,0.590,0.554,�쐼,2.5,��
2022/08/10,19:20,0.597,0.843,0.533,1.001,0.729,0.341,0.588,0.555,��쐼,3.5,��
2022/08/10,19:30,0.596,0.842,0.532,1.002,0.726,0.340,0.589,0.555,��,3.5,��
2022/08/10,19:40,0.596,0.842,0.532,1.001,0.730,0.342,0.589,0.554,��쓌,4.8,��
2022/08/10,19:50,0.598,0.842,0.534,1.003,0.729,0.341,0.590,0.553,��쓌,4.2,��
2022/08/10,20:00,0.597,0.843,0.533,1.003,0.727,0.342,0.589,0.553,��,4.7,�L
2022/08/10,20:10,0.596,0.843,0.532,1.001,0.729,0.341,0.588,0.554,��,3.9,�L
2022/08/10,20:20,0.596,0.844,0.534,1.004,0.729,0.341,0.588,0.555,��쐼,2.9,��
2022/08/10,20:30,0.596,0.842,0.534,1.004,0.729,0.341,0.589,0.556,��쐼,3.1,��
2022/08/10,20:40,0.597,0.844,0.533,1.005,0.729,0.342,0.589,0.554,�쐼,2.9,�L
2022/08/10,20:50,0.598,0.843,0.532,1.003,0.729,0.341,0.588,0.555,��쐼,2.8,��
2022/08/10,21:00,0.598,0.844,0.534,1.004,0.729,0.341,0.589,0.555,��쐼,2.6,�L
2022/08/10,21:10,0.597,0.845,0.534,1.005,0.729,0.342,0.590,0.556,��쐼,3.3,��
2022/08/10,21:20,0.597,0.840,0.534,1.003,0.730,0.342,0.589,0.554,��쐼,4.3,��
2022/08/10,21:30,0.598,0.843,0.534,1.005,0.730,0.342,0.588,0.554,��쐼,4.2,��
2022/08/10,21:40,0.597,0.843,0.532,1.004,0.731,0.342,0.591,0.554,��,4.4,��
2022/08/10,21:50,0.596,0.842,0.533,1.003,0.731,0.342,0.588,0.555,��쐼,4.9,��
2022/08/10,22:00,0.598,0.843,0.533,1.004,0.729,0.341,0.589,0.555,��쐼,6.4,��
2022/08/10,22:10,0.598,0.845,0.534,1.005,0.730,0.341,0.589,0.555,��쐼,6.4,��
2022/08/10,22:20,0.598,0.843,0.534,1.005,0.730,0.343,0.590,0.554,��쐼,5.8,��
2022/08/10,22:30,0.598,0.844,0.535,1.004,0.729,0.342,0.589,0.555,��,5.5,��
2022/08/10,22:40,0.597,0.844,0.534,1.003,0.729,0.340,0.589,0.554,��,6.7,��
2022/08/10,22:50,0.596,0.843,0.533,1.005,0.730,0.342,0.590,0.556,��,7.9,��
2022/08/10,23:00,0.596,0.843,0.534,1.005,0.729,0.343,0.589,0.556,��쐼,8.3,��
2022/08/10,23:10,0.596,0.842,0.533,1.005,0.729,0.342,0.588,0.555,��쐼,8.6,��
2022/08/10,23:20,0.598,0.845,0.533,1.007,0.730,0.341,0.589,0.555,��쐼,7.3,��
2022/08/10,23:30,0.596,0.845,0.533,1.003,0.731,0.342,0.590,0.555,��쐼,5.6,��
2022/08/10,23:40,0.595,0.842,0.534,1.006,0.729,0.341,0.591,0.555,��,5.6,��
2022/08/10,23:50,0.595,0.843,0.533,1.005,0.730,0.342,0.590,0.556,��,4.3,��
